This is the latest recevied weather packets stored in our database for station/object DN9EM-2. If no packets are shown the sender has not sent any weather packets the latest 10 day(s).
| Time | Temp. | Humidity | Pressure | Rain* | Wind** | Luminosity | Snow |
|---|---|---|---|---|---|---|---|
| 1777558242 | 18.89° C | 39% | 1032.3 hPa | 0 mm | - | - | - |
| 1777557640 | 18.33° C | 40% | 1032.3 hPa | 0 mm | - | - | - |
| 1777557038 | 18.89° C | 40% | 1032.5 hPa | 0 mm | - | - | - |
| 1777556435 | 18.33° C | 41% | 1032.6 hPa | 0 mm | - | - | - |
| 1777555832 | 18.33° C | 42% | 1032.8 hPa | 0 mm | - | - | - |
| 1777555229 | 17.78° C | 41% | 1032.8 hPa | 0 mm | - | - | - |
| 1777554627 | 17.78° C | 41% | 1033 hPa | 0 mm | - | - | - |
| 1777554024 | 17.78° C | 42% | 1033 hPa | 0 mm | - | - | - |
| 1777553421 | 18.33° C | 41% | 1033.1 hPa | 0 mm | - | - | - |
| 1777552819 | 18.33° C | 41% | 1033 hPa | 0 mm | - | - | - |
| 1777552216 | 17.78° C | 41% | 1033.3 hPa | 0 mm | - | - | - |
| 1777551674 | 17.78° C | 41% | 1033.3 hPa | 0 mm | - | - | - |
| 1777551071 | 17.22° C | 41% | 1033.4 hPa | 0 mm | - | - | - |
| 1777550468 | 17.22° C | 41% | 1033.4 hPa | 0 mm | - | - | - |
| 1777549866 | 17.22° C | 40% | 1033.5 hPa | 0 mm | - | - | - |
| 1777549263 | 17.78° C | 39% | 1033.6 hPa | 0 mm | - | - | - |
| 1777548660 | 17.78° C | 40% | 1033.9 hPa | 0 mm | - | - | - |
| 1777548058 | 17.78° C | 39% | 1033.8 hPa | 0 mm | - | - | - |
| 1777547455 | 17.78° C | 40% | 1034 hPa | 0 mm | - | - | - |
| 1777546852 | 16.67° C | 40% | 1034 hPa | 0 mm | - | - | - |
| 1777546250 | 16.67° C | 41% | 1034.2 hPa | 0 mm | - | - | - |
| 1777545647 | 16.11° C | 41% | 1034.2 hPa | 0 mm | - | - | - |
| 1777545044 | 16.11° C | 40% | 1034.3 hPa | 0 mm | - | - | - |
| 1777544442 | 16.11° C | 40% | 1034.4 hPa | 0 mm | - | - | - |
| 1777543839 | 15.56° C | 41% | 1034.4 hPa | 0 mm | - | - | - |
* Rain latest hour (hover to see other rain measurements)
** Current wind speed in m/s (hover to see current wind gust speed)